[[{"header":{"parameterUnit":"m.s-1","parameterCategory":2,"la1":30.2991,"la2":30.254,"lo1":-89.0895,"lo2":-89.0444,"dy":0.0017,"dx":0.0017,"nx":28,"ny":28,"refTime":"2025-05-31T03:00:00:Z","depth":"0","parameterNumber":2,"parameterNumberName":"U-component_of_CURRENTS"},"data":[0,0,0,0,0,0,0,0,0,0,0,0,0,0,0,0,0,0,0,0,0,0,0,0,0,0,0,0,0,0,0,0,0,0,0,0,0,0,0,0,0,0,0,0,0,0,0,0,0,0,0,0,0,0,0,0,0,0,-0.2057,-0.2059,0,-0.2194,-0.2195,-0.2196,-0.2178,-0.2176,-0.2174,-0.2172,-0.2184,-0.2186,-0.2188,0,0,0,0,0,0,0,0,0,0,0,0,0,-0.1893,-0.1895,-0.2057,-0.2059,-0.2061,-0.2193,-0.2195,-0.2197,-0.2178,-0.2176,-0.2173,-0.2171,-0.2183,-0.2186,-0.2188,0,0,0,0,0,0,0,0,0,0,0,0,0,-0.1988,-0.1896,-0.2057,-0.207,-0.2072,-0.2193,-0.2195,-0.2197,-0.2179,-0.2176,-0.2173,-0.217,-0.2182,-0.2185,-0.2189,-0.227,0,0,-0.2199,-0.22,0,0,0,0,0,0,0,0,-0.1982,-0.1993,-0.2066,-0.2069,-0.2072,-0.2168,-0.2142,-0.2216,-0.218,-0.2136,-0.2172,-0.2168,-0.2171,-0.2175,-0.2205,-0.227,-0.2271,-0.2199,-0.2201,-0.2202,-0.2203,0,0,0,0,0,0,0,-0.1976,-0.1988,-0.2109,-0.2068,-0.2072,-0.2107,-0.2116,-0.2157,-0.2164,-0.2139,-0.2139,-0.2159,-0.2171,-0.2202,-0.2205,-0.2271,-0.2199,-0.2202,-0.2204,-0.2205,-0.232,-0.2321,0,0,0,0,0,0,-0.1962,-0.1982,-0.2104,-0.2113,-0.2022,-0.2112,-0.2122,-0.2138,-0.2167,-0.217,-0.2162,-0.2158,-0.2198,-0.2201,-0.2205,-0.2243,-0.2202,-0.2205,-0.2207,-0.2319,-0.232,-0.2321,0,0,0,0,0,0,-0.1958,-0.1971,-0.2099,-0.2052,-0.2071,-0.2118,-0.2137,-0.2143,-0.2167,-0.2185,-0.2185,-0.2178,-0.2196,-0.2201,-0.2237,-0.2245,-0.2207,-0.221,-0.2317,-0.2319,-0.232,-0.2356,0,0,0,0,0,0,-0.1952,-0.1969,-0.1976,-0.2052,-0.2073,-0.2171,-0.214,-0.2148,-0.2186,-0.2182,-0.22,-0.2199,-0.2194,-0.2232,-0.224,-0.2248,-0.2212,-0.2316,-0.2318,-0.232,-0.2353,-0.2358,-0.2363,0,0,0,0,0,-0.1946,-0.197,-0.1975,-0.199,-0.2081,-0.2173,-0.2188,-0.2209,-0.2189,-0.2216,-0.2219,-0.2198,-0.2249,-0.2237,-0.2246,-0.2255,-0.2315,-0.2318,-0.232,-0.2351,-0.2357,-0.2363,0,0,0,0,0,0,-0.1907,-0.1973,-0.1979,-0.2022,-0.2091,-0.217,-0.2197,-0.2219,-0.2249,-0.2233,-0.2232,-0.2234,-0.2262,-0.2265,-0.2251,-0.2292,-0.2271,-0.2276,-0.2292,-0.2298,-0.2303,-0.2291,-0.2215,0,0,0,0,0,-0.1904,-0.1928,-0.201,-0.2043,-0.2075,-0.2138,-0.2175,-0.22,-0.2242,-0.2252,-0.2266,-0.2273,-0.2287,-0.2295,-0.2314,-0.2357,-0.2337,-0.2362,-0.2367,-0.2371,-0.2368,-0.2337,-0.2338,-0.2329,-0.2329,-0.2329,0,0,-0.1899,-0.1937,-0.1952,-0.2035,-0.2082,-0.215,-0.2151,-0.2217,-0.2258,-0.225,-0.2293,-0.2299,-0.2304,-0.2337,-0.2349,-0.2335,-0.237,-0.2374,-0.2377,-0.2372,-0.2339,-0.234,-0.234,-0.2331,-0.233,-0.233,0,0,-0.1915,-0.1936,-0.1969,-0.2032,-0.2112,-0.2158,-0.2178,-0.2263,-0.2276,-0.2341,-0.2325,-0.2341,-0.2383,-0.2382,-0.2385,-0.2436,-0.2398,-0.2433,-0.2449,-0.2419,-0.2419,-0.2418,-0.2418,-0.2417,-0.2432,-0.2432,-0.2432,0,-0.1905,-0.1952,-0.1998,-0.2059,-0.2097,-0.216,-0.2213,-0.2266,-0.2348,-0.2348,-0.2349,-0.2385,-0.2402,-0.2414,-0.2432,-0.2446,-0.2425,-0.2425,-0.2423,-0.2422,-0.2421,-0.242,-0.2419,-0.2434,-0.2434,-0.2434,-0.2434,0,-0.196,-0.1997,-0.2026,-0.2105,-0.2162,-0.2218,-0.2295,-0.2336,-0.2353,-0.2387,-0.2405,-0.2435,-0.2437,-0.2456,-0.2467,-0.2467,-0.2456,-0.2433,-0.2403,-0.2423,-0.2422,-0.242,-0.2437,-0.2436,-0.2436,-0.2435,0,0,-0.1926,-0.2036,-0.2042,-0.2067,-0.2179,-0.2226,-0.2291,-0.2347,-0.2358,-0.242,-0.2419,-0.2469,-0.246,-0.2464,-0.2472,-0.2469,-0.2473,-0.2453,-0.245,-0.2445,-0.2418,-0.2405,-0.2401,-0.2434,-0.2433,-0.2433,-0.2429,0,-0.1942,-0.2024,-0.2083,-0.2152,-0.2193,-0.2256,-0.2305,-0.2362,-0.2395,-0.242,-0.2433,-0.2449,-0.2469,-0.2465,-0.2466,-0.2471,-0.2464,-0.2477,-0.2406,-0.2405,-0.2383,-0.2397,-0.2284,-0.227,-0.2427,-0.2426,-0.2426,0,-0.197,-0.201,-0.2071,-0.2134,-0.2156,-0.2206,-0.2245,-0.2303,-0.2356,-0.2375,-0.2388,-0.2407,-0.2433,-0.2436,-0.2438,-0.2438,-0.243,-0.2434,-0.2432,-0.2401,-0.2386,-0.2271,-0.2259,-0.2241,-0.2422,-0.2423,-0.2423,0,-0.1895,-0.1993,-0.2016,-0.2051,-0.2151,-0.2158,-0.22,-0.2265,-0.2299,-0.2337,-0.2361,-0.2373,-0.2391,-0.2376,-0.2419,-0.241,-0.2417,-0.2394,-0.2373,-0.2373,-0.2255,-0.2246,-0.2205,-0.2368,-0.2368,-0.2368,-0.2368,0,-0.1876,-0.1894,-0.1975,-0.1991,-0.2005,-0.209,-0.211,-0.2156,-0.2222,-0.226,-0.2317,-0.235,-0.2374,-0.2398,-0.2403,-0.2397,-0.2394,-0.2378,-0.2364,-0.227,-0.2262,-0.2222,-0.2238,-0.2368,-0.2368,-0.2368,-0.2368,0,-0.1796,-0.1859,-0.1884,-0.1955,-0.1974,-0.1976,-0.2065,-0.2088,-0.2162,-0.2214,-0.2229,-0.2325,-0.2361,-0.2396,-0.2397,-0.2383,-0.2332,-0.2367,-0.228,-0.2256,-0.2201,-0.2223,-0.2167,-0.2109,-0.2322,-0.2321,-0.2321,0,-0.1764,-0.1769,-0.183,-0.1842,-0.1869,-0.1901,-0.1934,-0.2031,-0.2073,-0.2203,-0.2221,-0.2295,-0.2337,-0.2363,-0.2356,-0.2345,-0.2318,-0.2223,-0.2183,-0.2187,-0.22,-0.2206,-0.2161,-0.2052,-0.205,-0.2047,-0.2046,0,-0.1681,-0.1699,-0.1719,-0.1744,-0.177,-0.181,-0.1863,-0.1894,-0.2019,-0.2084,-0.2167,-0.2211,-0.228,-0.2245,-0.2259,-0.2224,-0.2155,-0.218,-0.2176,-0.1986,-0.1991,-0.1931,-0.2103,-0.2027,-0.2029,-0.203,-0.2031,-0.2032,-0.1601,-0.1593,-0.1621,-0.1635,-0.1669,-0.1694,-0.1696,-0.1785,-0.1843,-0.1934,-0.2048,-0.211,-0.2131,-0.2142,-0.2119,-0.2022,-0.2062,-0.1927,-0.1957,-0.1968,-0.1893,-0.2055,-0.1969,-0.197,-0.1971,-0.1972,-0.1973,0,-0.1501,-0.1509,-0.1517,-0.1535,-0.1532,-0.1585,-0.1635,-0.1635,-0.1672,-0.18,-0.1872,-0.1966,-0.1924,-0.1945,-0.1892,-0.1815,-0.1751,-0.1754,-0.171,-0.1676,-0.1792,-0.176,-0.1631,-0.1632,-0.1632,-0.1632,-0.1632,-0.1632,-0.1452,-0.1423,-0.1431,-0.139,-0.1403,-0.1369,-0.1373,-0.1395,-0.1459,-0.1548,-0.1661,-0.1794,-0.1839,-0.1917,-0.1801,-0.1701,-0.1648,-0.1587,-0.1631,-0.17,-0.1717,-0.1734,-0.1707,-0.1568,-0.1568,-0.142,-0.1419,-0.1419]},{"header":{"parameterUnit":"m.s-1","parameterCategory":2,"la1":30.2991,"la2":30.254,"lo1":-89.0895,"lo2":-89.0444,"dy":0.0017,"dx":0.0017,"nx":28,"ny":28,"refTime":"2025-05-31T03:00:00:Z","depth":"0","parameterNumber":3,"parameterNumberName":"V-component_of_CURRENTS"},"data":[0,0,0,0,0,0,0,0,0,0,0,0,0,0,0,0,0,0,0,0,0,0,0,0,0,0,0,0,0,0,0,0,0,0,0,0,0,0,0,0,0,0,0,0,0,0,0,0,0,0,0,0,0,0,0,0,0,0,-0.0248,-0.0248,0,-0.0213,-0.0213,-0.0212,-0.0167,-0.0167,-0.0166,-0.0166,-0.0073,-0.0071,-0.0069,0,0,0,0,0,0,0,0,0,0,0,0,0,-0.0264,-0.0264,-0.0248,-0.0248,-0.0247,-0.0214,-0.0213,-0.0212,-0.0167,-0.0167,-0.0166,-0.0165,-0.0073,-0.0071,-0.0069,0,0,0,0,0,0,0,0,0,0,0,0,0,-0.0244,-0.0263,-0.0248,-0.0222,-0.022,-0.0214,-0.0213,-0.0212,-0.0168,-0.0167,-0.0166,-0.0165,-0.0074,-0.0071,-0.0068,-0.0067,0,0,-0.0059,-0.0058,0,0,0,0,0,0,0,0,-0.0245,-0.0243,-0.0226,-0.0224,-0.0221,-0.0196,-0.0184,-0.0161,-0.0168,-0.0185,-0.0166,-0.0165,-0.011,-0.0104,-0.0098,-0.0062,-0.0058,-0.0059,-0.0057,-0.0056,-0.0055,0,0,0,0,0,0,0,-0.0247,-0.0244,-0.0232,-0.0226,-0.0223,-0.0209,-0.0205,-0.018,-0.015,-0.0184,-0.0181,-0.0181,-0.0108,-0.0101,-0.0095,-0.0057,-0.0059,-0.0057,-0.0055,-0.0054,0.0042,0.0043,0,0,0,0,0,0,-0.0256,-0.0246,-0.0233,-0.0231,-0.0234,-0.021,-0.0205,-0.0203,-0.0152,-0.0144,-0.0181,-0.0179,-0.0106,-0.0099,-0.0092,-0.006,-0.0056,-0.0053,-0.0052,0.0041,0.0042,0.0043,0,0,0,0,0,0,-0.0257,-0.0256,-0.0235,-0.0239,-0.0236,-0.0211,-0.0208,-0.0203,-0.0196,-0.0151,-0.0141,-0.018,-0.0105,-0.0096,-0.0058,-0.0057,-0.0052,-0.0049,0.004,0.0041,0.0042,-0.0013,0,0,0,0,0,0,-0.0257,-0.0256,-0.0257,-0.024,-0.0236,-0.0242,-0.0209,-0.0203,-0.0198,-0.0194,-0.0147,-0.0138,-0.0104,-0.0063,-0.0055,-0.0052,-0.0047,0.0039,0.0041,0.0042,-0.0012,-0.0014,-0.0015,0,0,0,0,0,-0.0258,-0.0273,-0.0257,-0.0256,-0.0238,-0.0243,-0.024,-0.0217,-0.0199,-0.0206,-0.0158,-0.0139,-0.0048,-0.006,-0.0052,-0.0048,0.0038,0.004,0.0042,-0.0011,-0.0013,-0.0015,0,0,0,0,0,0,-0.0286,-0.027,-0.0252,-0.0261,-0.0254,-0.0236,-0.0242,-0.0224,-0.0194,-0.0187,-0.0135,-0.0122,-0.0088,-0.0058,-0.0073,-0.0012,0.0,0.0004,-0.0043,-0.0045,-0.0046,-0.0063,-0.0045,0,0,0,0,0,-0.0291,-0.0293,-0.0278,-0.0285,-0.0285,-0.0262,-0.026,-0.0249,-0.0222,-0.0209,-0.0169,-0.012,-0.0075,-0.0053,-0.0015,0.0011,0.0038,0.0023,0.0022,0.002,0.0015,0.0058,0.0059,0.0049,0.0049,0.0048,0,0,-0.0303,-0.0295,-0.0295,-0.029,-0.0281,-0.029,-0.0259,-0.0268,-0.026,-0.0203,-0.0176,-0.013,-0.0069,-0.0033,-0.0015,-0.0008,0.0038,0.0022,0.002,0.0016,0.006,0.006,0.0061,0.005,0.0049,0.0049,0,0,-0.0344,-0.0323,-0.0343,-0.0341,-0.0338,-0.0319,-0.0325,-0.0307,-0.0283,-0.0257,-0.0203,-0.0156,-0.0099,-0.0049,-0.0016,-0.0003,0.0026,0.001,-0.0012,0.0029,0.003,0.0031,0.0062,0.0067,0.0011,0.0011,0.0011,0,-0.036,-0.0377,-0.0352,-0.0374,-0.0371,-0.0335,-0.0356,-0.0331,-0.0298,-0.0273,-0.0256,-0.0149,-0.0104,-0.0042,-0.0033,-0.0009,0.0015,-0.0015,0.0025,0.0026,0.0028,0.006,0.0066,0.0008,0.0009,0.0009,0.0009,0,-0.0418,-0.0428,-0.0443,-0.0444,-0.0438,-0.0454,-0.0416,-0.0397,-0.0358,-0.0323,-0.0261,-0.019,-0.0126,-0.01,-0.0062,-0.0019,-0.0007,0.0013,0.0021,0.0025,0.006,0.0066,0.0005,0.0006,0.0006,0.0007,0,0,-0.0458,-0.0479,-0.0482,-0.0492,-0.0475,-0.0479,-0.0456,-0.0422,-0.0402,-0.0347,-0.0311,-0.0221,-0.0181,-0.0139,-0.0082,-0.0042,-0.0007,-0.0016,-0.0012,0.0,0.0076,0.011,0.0121,0.0014,0.0015,0.0016,0.0093,0,-0.0507,-0.0563,-0.0549,-0.0579,-0.06,-0.055,-0.0529,-0.0488,-0.0435,-0.0391,-0.03,-0.0248,-0.0194,-0.0165,-0.0114,-0.003,0.0008,-0.003,0.0084,0.0088,0.0105,0.0129,0.0146,0.0219,0.0099,0.0101,0.0101,0,-0.0566,-0.059,-0.0639,-0.0639,-0.0641,-0.0644,-0.0595,-0.0574,-0.0493,-0.0452,-0.038,-0.0312,-0.0225,-0.0192,-0.0053,-0.0082,-0.0012,0.0049,0.0053,0.0108,0.0134,0.0199,0.0235,0.0391,0.0111,0.0111,0.011,0,-0.0607,-0.0646,-0.0681,-0.0686,-0.0682,-0.0678,-0.066,-0.0594,-0.0574,-0.0492,-0.0471,-0.0354,-0.0301,-0.0192,-0.0057,-0.0057,0.0082,0.0101,0.0198,0.02,0.025,0.0256,0.0438,0.0184,0.0184,0.0184,0.0183,0,-0.0661,-0.0688,-0.0708,-0.073,-0.0755,-0.0727,-0.0729,-0.069,-0.064,-0.0627,-0.0511,-0.0474,-0.0301,-0.0196,-0.0076,0.0084,0.0072,0.0198,0.0227,0.0232,0.0236,0.0401,0.046,0.0186,0.0186,0.0185,0.0185,0,-0.0702,-0.072,-0.0764,-0.0778,-0.0783,-0.0798,-0.0794,-0.0794,-0.0736,-0.0717,-0.0697,-0.0561,-0.0414,-0.0243,-0.0061,0.0058,0.0298,0.0259,0.025,0.0277,0.0519,0.0572,0.076,0.0831,0.0387,0.0388,0.039,0,-0.0728,-0.0759,-0.0805,-0.0839,-0.0851,-0.0871,-0.0886,-0.0846,-0.0848,-0.0772,-0.077,-0.0626,-0.0524,-0.0228,0.0013,0.0241,0.035,0.0388,0.0402,0.0546,0.0627,0.066,0.0708,0.0445,0.0447,0.0448,0.0449,0,-0.0768,-0.0786,-0.0823,-0.0901,-0.0939,-0.0977,-0.0996,-0.1015,-0.0969,-0.0948,-0.0887,-0.08,-0.0493,-0.021,0.0105,0.0249,0.0503,0.0421,0.0581,0.07,0.0738,0.0815,0.0373,0.046,0.0459,0.0458,0.0458,0.0457,-0.0786,-0.0828,-0.0888,-0.0956,-0.1012,-0.1075,-0.1109,-0.1127,-0.1138,-0.1103,-0.099,-0.084,-0.0394,0.0066,0.024,0.0641,0.061,0.0761,0.0816,0.0838,0.091,0.0488,0.0601,0.0601,0.0601,0.06,0.06,0,-0.0809,-0.0865,-0.094,-0.103,-0.111,-0.1119,-0.1176,-0.1207,-0.1238,-0.1165,-0.1085,-0.0632,-0.0192,0.0236,0.0803,0.1025,0.1066,0.1135,0.1197,0.1229,0.0875,0.0883,0.1048,0.1048,0.1048,0.1048,0.1047,0.1047,-0.0825,-0.0905,-0.0954,-0.1094,-0.1159,-0.1249,-0.1286,-0.1323,-0.1286,-0.115,-0.0926,-0.0739,-0.0077,0.0838,0.1369,0.1418,0.1585,0.1572,0.1665,0.1438,0.1408,0.1379,0.1403,0.1674,0.1675,0.1996,0.1999,0.2001]}],[{"header":{"parameterUnit":"m.s-1","parameterCategory":2,"la1":30.2991,"la2":30.254,"lo1":-89.0895,"lo2":-89.0444,"dy":0.0017,"dx":0.0017,"nx":28,"ny":28,"refTime":"2025-05-31T03:00:00:Z","depth":"2","parameterNumber":2,"parameterNumberName":"U-component_of_CURRENTS"},"data":[0,0,0,0,0,0,0,0,0,0,0,0,0,0,0,0,0,0,0,0,0,0,0,0,0,0,0,0,0,0,0,0,0,0,0,0,0,0,0,0,0,0,0,0,0,0,0,0,0,0,0,0,0,0,0,0,0,0,-0.1911,-0.1912,0,-0.2019,-0.202,-0.2022,-0.2006,-0.2004,-0.2002,-0.2,-0.2044,-0.2047,-0.205,0,0,0,0,0,0,0,0,0,0,0,0,0,-0.1782,-0.1784,-0.1911,-0.1912,-0.1913,-0.2019,-0.2021,-0.2022,-0.2006,-0.2004,-0.2002,-0.1999,-0.2043,-0.2047,-0.205,0,0,0,0,0,0,0,0,0,0,0,0,0,-0.1859,-0.1784,-0.191,-0.1918,-0.192,-0.2019,-0.2021,-0.2022,-0.2007,-0.2004,-0.2001,-0.1998,-0.2042,-0.2046,-0.2051,-0.2133,0,0,-0.2064,-0.2066,0,0,0,0,0,0,0,0,-0.1854,-0.1863,-0.1916,-0.1918,-0.192,-0.1996,-0.1991,-0.2056,-0.2007,-0.1974,-0.2,-0.1997,-0.2024,-0.203,-0.2058,-0.2135,-0.2137,-0.2064,-0.2067,-0.2069,-0.207,0,0,0,0,0,0,0,-0.1849,-0.1859,-0.1954,-0.1917,-0.192,-0.1948,-0.1955,-0.2004,-0.2012,-0.1976,-0.1976,-0.1988,-0.2024,-0.2053,-0.2058,-0.2137,-0.2064,-0.2068,-0.2071,-0.2072,-0.2213,-0.2214,0,0,0,0,0,0,-0.1834,-0.1854,-0.195,-0.1957,-0.1879,-0.1952,-0.196,-0.1974,-0.2013,-0.2017,-0.1991,-0.1987,-0.2047,-0.2053,-0.206,-0.2112,-0.2069,-0.2073,-0.2075,-0.2212,-0.2213,-0.2214,0,0,0,0,0,0,-0.1831,-0.1842,-0.1946,-0.1907,-0.1922,-0.1956,-0.1974,-0.1978,-0.2001,-0.2024,-0.2026,-0.2007,-0.2045,-0.2053,-0.2104,-0.2115,-0.2075,-0.2079,-0.221,-0.2212,-0.2214,-0.2247,0,0,0,0,0,0,-0.1827,-0.184,-0.1848,-0.1907,-0.1924,-0.2008,-0.1976,-0.1982,-0.2013,-0.201,-0.204,-0.2041,-0.2044,-0.2097,-0.2108,-0.212,-0.2082,-0.2209,-0.2211,-0.2213,-0.2244,-0.225,-0.2254,0,0,0,0,0,-0.1822,-0.1843,-0.1848,-0.186,-0.1933,-0.201,-0.2023,-0.2037,-0.2017,-0.2044,-0.2056,-0.204,-0.2117,-0.2103,-0.2115,-0.2128,-0.2208,-0.2211,-0.2213,-0.2242,-0.2249,-0.2254,0,0,0,0,0,0,-0.1794,-0.1846,-0.1851,-0.1887,-0.1945,-0.2007,-0.2029,-0.2046,-0.2083,-0.2068,-0.2077,-0.2083,-0.2123,-0.2132,-0.2117,-0.2173,-0.2152,-0.2157,-0.217,-0.2176,-0.2181,-0.2163,-0.2086,0,0,0,0,0,-0.1794,-0.1816,-0.1881,-0.191,-0.1935,-0.1985,-0.2016,-0.2035,-0.2075,-0.2087,-0.2115,-0.2131,-0.215,-0.2166,-0.2193,-0.2247,-0.2227,-0.2255,-0.226,-0.2264,-0.2258,-0.2229,-0.2229,-0.2223,-0.2223,-0.2223,0,0,-0.1791,-0.1821,-0.1834,-0.1905,-0.1942,-0.1999,-0.1996,-0.2049,-0.2086,-0.2089,-0.2144,-0.2159,-0.2169,-0.2213,-0.2231,-0.2218,-0.2263,-0.2267,-0.2271,-0.2262,-0.2231,-0.2231,-0.2232,-0.2224,-0.2224,-0.2224,0,0,-0.1805,-0.1824,-0.1853,-0.1904,-0.1968,-0.2008,-0.2024,-0.21,-0.2116,-0.2188,-0.2176,-0.2203,-0.2262,-0.2265,-0.2269,-0.2325,-0.229,-0.2325,-0.2339,-0.2311,-0.2311,-0.231,-0.2312,-0.2311,-0.2326,-0.2326,-0.2326,0,-0.1798,-0.1838,-0.1878,-0.1927,-0.1957,-0.2011,-0.2055,-0.2104,-0.2187,-0.2192,-0.2202,-0.2255,-0.2281,-0.2294,-0.2315,-0.2334,-0.2315,-0.2315,-0.2315,-0.2314,-0.2312,-0.2314,-0.2313,-0.2328,-0.2328,-0.2328,-0.2327,0,-0.1843,-0.1875,-0.1898,-0.1966,-0.2014,-0.2061,-0.2128,-0.2172,-0.2197,-0.2232,-0.2262,-0.2305,-0.2318,-0.2339,-0.2352,-0.2354,-0.2344,-0.2323,-0.2295,-0.2314,-0.2317,-0.2314,-0.2331,-0.233,-0.233,-0.2329,0,0,-0.1816,-0.1907,-0.1912,-0.1933,-0.2027,-0.2068,-0.2127,-0.2181,-0.2194,-0.2266,-0.2274,-0.2332,-0.2333,-0.2339,-0.2352,-0.2352,-0.2358,-0.2339,-0.2337,-0.2332,-0.2308,-0.2291,-0.2287,-0.2322,-0.2321,-0.2321,-0.2323,0,-0.1829,-0.1897,-0.1946,-0.2006,-0.204,-0.2094,-0.2142,-0.2195,-0.2235,-0.227,-0.2286,-0.2315,-0.2336,-0.2343,-0.2343,-0.2355,-0.2349,-0.2361,-0.2297,-0.2296,-0.2269,-0.2282,-0.2086,-0.2069,-0.232,-0.232,-0.232,0,-0.185,-0.1884,-0.1935,-0.1992,-0.201,-0.2056,-0.2096,-0.2152,-0.2206,-0.2232,-0.2249,-0.2275,-0.2303,-0.2311,-0.2316,-0.2316,-0.2312,-0.232,-0.2319,-0.2283,-0.2273,-0.2085,-0.2055,-0.2316,-0.2316,-0.2316,-0.2316,0,-0.1786,-0.1869,-0.189,-0.1919,-0.2007,-0.2016,-0.2057,-0.212,-0.2154,-0.2199,-0.2228,-0.2243,-0.2269,-0.2254,-0.2302,-0.2293,-0.2303,-0.2284,-0.2261,-0.2261,-0.2072,-0.2057,-0.2258,-0.2258,-0.2258,-0.2258,-0.2258,0,-0.1768,-0.1783,-0.1856,-0.1869,-0.1885,-0.196,-0.1985,-0.2029,-0.2095,-0.2133,-0.2192,-0.2226,-0.2253,-0.2278,-0.2285,-0.2281,-0.228,-0.2263,-0.2252,-0.2085,-0.2071,-0.226,-0.226,-0.2258,-0.2258,-0.2258,-0.2258,0,-0.1695,-0.1751,-0.1774,-0.1839,-0.1857,-0.1862,-0.1945,-0.197,-0.2044,-0.2096,-0.2113,-0.2208,-0.2243,-0.2279,-0.2284,-0.2269,-0.2262,-0.2254,-0.2083,-0.2051,-0.2242,-0.2245,-0.221,-0.221,-0.2209,-0.2208,-0.2208,0,-0.1664,-0.1669,-0.1726,-0.1737,-0.1761,-0.1794,-0.1825,-0.1918,-0.1959,-0.2087,-0.2104,-0.2179,-0.2217,-0.2243,-0.2225,-0.2212,-0.2257,-0.202,-0.1968,-0.2241,-0.2233,-0.2237,-0.224,-0.1741,-0.1737,-0.1733,-0.1731,0,-0.1587,-0.1605,-0.1622,-0.1645,-0.167,-0.1707,-0.1758,-0.1787,-0.1906,-0.1969,-0.2049,-0.209,-0.2146,-0.206,-0.2067,-0.2025,-0.2007,-0.1951,-0.224,-0.1801,-0.1802,-0.1795,-0.1811,-0.17,-0.1703,-0.1705,-0.1707,-0.1708,-0.1513,-0.1504,-0.1529,-0.1542,-0.1574,-0.1596,-0.1596,-0.1678,-0.1731,-0.1807,-0.1919,-0.1937,-0.1942,-0.1872,-0.1799,-0.1738,-0.1878,-0.1759,-0.1767,-0.1779,-0.1741,-0.1743,-0.1624,-0.1626,-0.1628,-0.163,-0.1632,0,-0.1417,-0.1424,-0.143,-0.1445,-0.144,-0.1493,-0.1537,-0.1528,-0.1557,-0.165,-0.1708,-0.1585,-0.1545,-0.1559,-0.1431,-0.1417,-0.137,-0.1334,-0.1253,-0.1285,-0.1313,-0.1249,-0.1002,-0.1,-0.0998,-0.0997,0,0,-0.137,-0.134,-0.1346,-0.1304,-0.1317,-0.1281,-0.1282,-0.1289,-0.1322,-0.1324,-0.1345,-0.1494,-0.1528,-0.1281,-0.1211,-0.1087,-0.117,-0.1025,-0.1528,-0.1464,-0.149,-0.1553,-0.1491,0,0,0,0,0]},{"header":{"parameterUnit":"m.s-1","parameterCategory":2,"la1":30.2991,"la2":30.254,"lo1":-89.0895,"lo2":-89.0444,"dy":0.0017,"dx":0.0017,"nx":28,"ny":28,"refTime":"2025-05-31T03:00:00:Z","depth":"2","parameterNumber":3,"parameterNumberName":"V-component_of_CURRENTS"},"data":[0,0,0,0,0,0,0,0,0,0,0,0,0,0,0,0,0,0,0,0,0,0,0,0,0,0,0,0,0,0,0,0,0,0,0,0,0,0,0,0,0,0,0,0,0,0,0,0,0,0,0,0,0,0,0,0,0,0,-0.0122,-0.0121,0,-0.0068,-0.0067,-0.0067,-0.0018,-0.0018,-0.0017,-0.0017,0.0066,0.0067,0.0069,0,0,0,0,0,0,0,0,0,0,0,0,0,-0.0152,-0.0152,-0.0122,-0.0121,-0.0121,-0.0068,-0.0067,-0.0066,-0.0018,-0.0018,-0.0017,-0.0017,0.0065,0.0067,0.0069,0,0,0,0,0,0,0,0,0,0,0,0,0,-0.0122,-0.0152,-0.0122,-0.0092,-0.0088,-0.0068,-0.0067,-0.0066,-0.0018,-0.0018,-0.0017,-0.0016,0.0064,0.0067,0.0069,0.0073,0,0,0.0078,0.0079,0,0,0,0,0,0,0,0,-0.0123,-0.012,-0.0097,-0.0094,-0.009,-0.005,-0.0048,-0.0019,-0.0019,-0.0043,-0.0017,-0.0016,0.0028,0.0034,0.0044,0.0077,0.008,0.0078,0.008,0.0081,0.0081,0,0,0,0,0,0,0,-0.0126,-0.0122,-0.0099,-0.0096,-0.0092,-0.007,-0.0065,-0.0042,-0.001,-0.0041,-0.0038,-0.0035,0.003,0.0041,0.0046,0.0082,0.0078,0.008,0.0082,0.0083,0.0164,0.0165,0,0,0,0,0,0,-0.0138,-0.0124,-0.0101,-0.0098,-0.0107,-0.007,-0.0065,-0.0063,-0.0011,-0.0003,-0.0035,-0.0033,0.0036,0.0043,0.0049,0.0072,0.0081,0.0083,0.0085,0.0164,0.0164,0.0165,0,0,0,0,0,0,-0.0138,-0.0136,-0.0103,-0.0111,-0.0105,-0.0071,-0.0069,-0.0062,-0.0054,-0.0007,0.0002,-0.0034,0.0037,0.0046,0.0077,0.0075,0.0084,0.0087,0.0163,0.0164,0.0165,0.0107,0,0,0,0,0,0,-0.014,-0.0137,-0.0139,-0.0112,-0.0105,-0.0104,-0.0069,-0.0061,-0.0053,-0.0049,-0.0004,0.0005,0.0038,0.0072,0.0079,0.0079,0.0089,0.0162,0.0164,0.0165,0.0108,0.0105,0.0103,0,0,0,0,0,-0.0141,-0.0155,-0.0139,-0.0136,-0.011,-0.0105,-0.01,-0.0071,-0.0054,-0.006,-0.0015,0.0003,0.0084,0.0075,0.0083,0.0083,0.0162,0.0163,0.0164,0.0109,0.0106,0.0103,0,0,0,0,0,0,-0.0172,-0.0151,-0.0133,-0.0139,-0.0127,-0.0097,-0.01,-0.008,-0.005,-0.0045,0.0005,0.0017,0.0045,0.0073,0.0062,0.0113,0.0128,0.0131,0.0083,0.0081,0.0078,0.0064,0.0091,0,0,0,0,0,-0.018,-0.0181,-0.0159,-0.0164,-0.0161,-0.013,-0.0124,-0.0109,-0.008,-0.0067,-0.0031,0.0014,0.0056,0.0075,0.011,0.013,0.0159,0.014,0.0137,0.0135,0.0131,0.0173,0.0174,0.0169,0.0169,0.0169,0,0,-0.0192,-0.0181,-0.0181,-0.017,-0.0155,-0.0159,-0.0125,-0.0127,-0.0119,-0.0063,-0.0041,0.0001,0.006,0.009,0.0105,0.0113,0.0152,0.0137,0.0134,0.0131,0.0174,0.0175,0.0175,0.017,0.017,0.017,0,0,-0.0231,-0.021,-0.0229,-0.0222,-0.0211,-0.0189,-0.0194,-0.017,-0.0148,-0.0125,-0.0072,-0.0031,0.002,0.0068,0.01,0.0105,0.0137,0.0116,0.0092,0.0133,0.0133,0.0134,0.0167,0.0171,0.0117,0.0116,0.0116,0,-0.0247,-0.0263,-0.0235,-0.0253,-0.0247,-0.0207,-0.0225,-0.0198,-0.0164,-0.0141,-0.0126,-0.0029,0.0014,0.007,0.0077,0.0098,0.0123,0.0093,0.0128,0.0129,0.013,0.0164,0.0169,0.0114,0.0114,0.0114,0.0115,0,-0.03,-0.0309,-0.0322,-0.032,-0.0311,-0.0323,-0.0283,-0.0266,-0.0231,-0.0196,-0.0141,-0.0075,-0.0016,0.0008,0.0044,0.0082,0.0096,0.0115,0.0127,0.0127,0.0163,0.0169,0.011,0.0111,0.0112,0.0112,0,0,-0.0341,-0.0357,-0.0359,-0.0368,-0.0347,-0.0347,-0.0327,-0.0294,-0.0277,-0.0226,-0.0194,-0.0112,-0.0074,-0.0035,0.0019,0.0058,0.0091,0.0084,0.0088,0.0104,0.0173,0.0202,0.0212,0.0111,0.0112,0.0112,0.0192,0,-0.0389,-0.0439,-0.0423,-0.0451,-0.0468,-0.0419,-0.04,-0.036,-0.0312,-0.0272,-0.0186,-0.0139,-0.0088,-0.0062,-0.0014,0.0069,0.0105,0.0067,0.0183,0.0187,0.0201,0.0219,0.0195,0.0265,0.0199,0.02,0.02,0,-0.0443,-0.0466,-0.0511,-0.051,-0.0512,-0.0515,-0.047,-0.045,-0.0374,-0.0336,-0.0269,-0.0203,-0.0121,-0.009,0.0046,0.0017,0.0085,0.0145,0.015,0.02,0.0227,0.0259,0.028,0.0211,0.021,0.021,0.0209,0,-0.0487,-0.0521,-0.0556,-0.0559,-0.0553,-0.0551,-0.0535,-0.0473,-0.0454,-0.0377,-0.0357,-0.0245,-0.0194,-0.0088,0.0043,0.0043,0.018,0.0199,0.0289,0.0292,0.0307,0.031,0.0279,0.0279,0.0279,0.0279,0.0278,0,-0.0539,-0.0565,-0.0584,-0.0604,-0.0631,-0.0602,-0.0607,-0.057,-0.0523,-0.051,-0.0398,-0.0361,-0.0195,-0.0091,0.0026,0.0181,0.0172,0.0289,0.0318,0.0287,0.0287,0.0269,0.0267,0.0282,0.0281,0.028,0.028,0,-0.058,-0.0597,-0.064,-0.0653,-0.0659,-0.0675,-0.0671,-0.0672,-0.0616,-0.0598,-0.0579,-0.0445,-0.0302,-0.0136,0.0042,0.0156,0.03,0.035,0.0301,0.0323,0.0388,0.0382,0.0468,0.047,0.0471,0.0473,0.0474,0,-0.0606,-0.0637,-0.0681,-0.0714,-0.0726,-0.0747,-0.0762,-0.0724,-0.0724,-0.0649,-0.0646,-0.0506,-0.0406,-0.0119,0.0107,0.0325,0.0324,0.0429,0.0434,0.039,0.0409,0.0401,0.0393,0.043,0.0431,0.0431,0.0432,0,-0.0646,-0.0664,-0.07,-0.0775,-0.0813,-0.0848,-0.0867,-0.0884,-0.0839,-0.0817,-0.0754,-0.0668,-0.0378,-0.0125,0.0172,0.0301,0.0399,0.0447,0.0421,0.0385,0.0361,0.0377,0.037,0.0436,0.0436,0.0435,0.0435,0.0435,-0.0665,-0.0706,-0.0763,-0.083,-0.0884,-0.0942,-0.0974,-0.0987,-0.0996,-0.0952,-0.0845,-0.0689,-0.0415,0.001,0.023,0.0453,0.0451,0.0516,0.0511,0.0507,0.0487,0.0467,0.0558,0.0559,0.0559,0.0559,0.0559,0,-0.0688,-0.0742,-0.0814,-0.09,-0.0975,-0.0986,-0.1038,-0.1058,-0.1082,-0.1001,-0.0917,-0.0616,-0.0309,-0.0023,0.0333,0.0539,0.0526,0.0571,0.0514,0.0509,0.0505,0.0482,0.0554,0.0554,0.0554,0.0555,0,0,-0.0704,-0.078,-0.0825,-0.0957,-0.1022,-0.1105,-0.1139,-0.1156,-0.1108,-0.1043,-0.0907,-0.0685,-0.0319,-0.0067,0.0198,0.0381,0.0385,0.0397,0.0382,0.0277,0.027,0.0457,0.0415,0,0,0,0,0]}],[{"header":{"parameterUnit":"m.s-1","parameterCategory":2,"la1":30.2991,"la2":30.254,"lo1":-89.0895,"lo2":-89.0444,"dy":0.0017,"dx":0.0017,"nx":28,"ny":28,"refTime":"2025-05-31T03:00:00:Z","depth":"4","parameterNumber":2,"parameterNumberName":"U-component_of_CURRENTS"},"data":[0,0,0,0,0,0,0,0,0,0,0,0,0,0,0,0,0,0,0,0,0,0,0,0,0,0,0,0,0,0,0,0,0,0,0,0,0,0,0,0,0,0,0,0,0,0,0,0,0,0,0,0,0,0,0,0,0,0,-0.1356,-0.1356,0,-0.1336,-0.1335,-0.1334,-0.1309,-0.1309,-0.1309,-0.1309,-0.1287,-0.1287,-0.1286,0,0,0,0,0,0,0,0,0,0,0,0,0,-0.1276,-0.1278,-0.1356,-0.1357,-0.1357,-0.1336,-0.1335,-0.1334,-0.1309,-0.1309,-0.1309,-0.1309,-0.1288,-0.1287,-0.1286,0,0,0,0,0,0,0,0,0,0,0,0,0,-0.1283,-0.1278,-0.1356,-0.1346,-0.1346,-0.1336,-0.1335,-0.1334,-0.1309,-0.1309,-0.1309,-0.131,-0.1288,-0.1287,-0.1286,-0.1273,0,0,-0.1282,-0.1282,0,0,0,0,0,0,0,0,-0.1283,-0.1285,-0.1348,-0.1347,-0.1347,-0.1331,-0.1299,-0.1316,-0.1309,-0.1316,-0.1309,-0.131,-0.1306,-0.1303,-0.1289,-0.1272,-0.1271,-0.1282,-0.1281,-0.1281,-0.1281,0,0,0,0,0,0,0,-0.1282,-0.1285,-0.1342,-0.1348,-0.1347,-0.131,-0.1312,-0.1301,-0.1305,-0.1315,-0.1315,-0.1323,-0.1305,-0.1291,-0.1289,-0.1271,-0.1282,-0.1281,-0.128,-0.128,-0.132,-0.1321,0,0,0,0,0,0,-0.1303,-0.1286,-0.1342,-0.1342,-0.1322,-0.1313,-0.1314,-0.133,-0.1305,-0.1303,-0.1323,-0.1322,-0.1292,-0.129,-0.1288,-0.1348,-0.1281,-0.128,-0.1279,-0.1318,-0.132,-0.1322,0,0,0,0,0,0,-0.1302,-0.1309,-0.1343,-0.1317,-0.132,-0.1315,-0.1333,-0.133,-0.1337,-0.1312,-0.1308,-0.1337,-0.1293,-0.129,-0.13,-0.1344,-0.1279,-0.1278,-0.1316,-0.1319,-0.1321,-0.142,0,0,0,0,0,0,-0.1299,-0.1308,-0.133,-0.1319,-0.1323,-0.1346,-0.1333,-0.133,-0.1344,-0.1343,-0.1322,-0.1319,-0.1293,-0.1302,-0.1298,-0.1342,-0.1277,-0.1314,-0.1317,-0.132,-0.1414,-0.1425,-0.1435,0,0,0,0,0,-0.1297,-0.132,-0.1331,-0.1338,-0.1352,-0.1347,-0.1345,-0.1336,-0.1345,-0.1344,-0.1342,-0.1321,-0.1321,-0.1302,-0.1298,-0.1342,-0.1312,-0.1316,-0.132,-0.141,-0.1423,-0.1435,0,0,0,0,0,0,-0.1291,-0.1321,-0.1331,-0.1363,-0.1363,-0.1346,-0.1354,-0.1353,-0.1349,-0.1358,-0.1333,-0.1329,-0.1359,-0.1334,-0.1314,-0.1364,-0.1317,-0.132,-0.1387,-0.1399,-0.1409,-0.1399,-0.1276,0,0,0,0,0,-0.1305,-0.1334,-0.1345,-0.137,-0.1379,-0.1374,-0.1376,-0.1372,-0.1368,-0.1367,-0.1355,-0.1355,-0.1368,-0.1371,-0.1365,-0.1385,-0.1367,-0.1414,-0.1424,-0.1433,-0.1423,-0.1445,-0.1456,-0.1335,-0.1335,-0.1335,0,0,-0.1311,-0.1331,-0.1348,-0.1371,-0.1375,-0.1383,-0.1374,-0.1386,-0.1399,-0.1367,-0.1384,-0.1388,-0.1382,-0.1408,-0.142,-0.1395,-0.1462,-0.1438,-0.1446,-0.143,-0.145,-0.1462,-0.1472,-0.1337,-0.1337,-0.1337,0,0,-0.1326,-0.1358,-0.1385,-0.1391,-0.1411,-0.1404,-0.1417,-0.1416,-0.1426,-0.1444,-0.1439,-0.1469,-0.1467,-0.1477,-0.1484,-0.1547,-0.1518,-0.1556,-0.1598,-0.1621,-0.1631,-0.1639,-0.1647,-0.1655,-0.156,-0.156,-0.156,0,-0.1333,-0.1368,-0.1386,-0.1408,-0.1421,-0.1421,-0.1439,-0.1446,-0.1446,-0.1471,-0.1463,-0.1504,-0.1503,-0.1553,-0.1577,-0.1572,-0.1569,-0.1554,-0.1634,-0.1642,-0.1649,-0.1655,-0.1663,-0.1565,-0.1565,-0.1564,-0.1564,0,-0.1355,-0.1391,-0.1406,-0.1438,-0.145,-0.1463,-0.1482,-0.1502,-0.1523,-0.1533,-0.1591,-0.1592,-0.1615,-0.1636,-0.1625,-0.1686,-0.1665,-0.1648,-0.1602,-0.1667,-0.1669,-0.1676,-0.1573,-0.1571,-0.1569,-0.1568,0,0,-0.1343,-0.1411,-0.1417,-0.144,-0.147,-0.1475,-0.1522,-0.1558,-0.1597,-0.1617,-0.1668,-0.1711,-0.1718,-0.1725,-0.1728,-0.1748,-0.1809,-0.1721,-0.172,-0.1728,-0.1852,-0.1733,-0.1728,-0.1809,-0.181,-0.1811,-0.1839,0,-0.1352,-0.1399,-0.1434,-0.1469,-0.1489,-0.1524,-0.1562,-0.1601,-0.1638,-0.168,-0.1722,-0.1759,-0.1751,-0.1773,-0.18,-0.1801,-0.1828,-0.1802,-0.1787,-0.1786,-0.1672,-0.1732,-0.1816,-0.1843,-0.1845,-0.1846,-0.1846,0,-0.135,-0.1384,-0.143,-0.1494,-0.151,-0.1532,-0.16,-0.1635,-0.1707,-0.1745,-0.1799,-0.1817,-0.1866,-0.1843,-0.1885,-0.1869,-0.1869,-0.1866,-0.1867,-0.1718,-0.1678,-0.1761,-0.1857,-0.1856,-0.1856,-0.1855,-0.1854,0,-0.1303,-0.1376,-0.1414,-0.1432,-0.1503,-0.1545,-0.158,-0.1655,-0.1697,-0.1778,-0.1815,-0.1874,-0.1899,-0.1917,-0.192,-0.1908,-0.1948,-0.1931,-0.1827,-0.1818,-0.1872,-0.1863,-0.1962,-0.1962,-0.1962,-0.1962,-0.1962,0,-0.1274,-0.1305,-0.1399,-0.1411,-0.1459,-0.1523,-0.1583,-0.1636,-0.1717,-0.176,-0.1835,-0.1868,-0.1919,-0.1947,-0.1943,-0.1898,-0.1972,-0.1834,-0.1818,-0.1915,-0.191,-0.1878,-0.1867,-0.1963,-0.1963,-0.1962,-0.1962,0,-0.1203,-0.127,-0.1313,-0.1404,-0.1435,-0.1463,-0.1561,-0.1601,-0.1692,-0.175,-0.1776,-0.187,-0.19,-0.1938,-0.1964,-0.1909,-0.189,-0.186,-0.1963,-0.1953,-0.174,-0.1735,-0.1738,-0.1734,-0.173,-0.1728,-0.1725,0,-0.1168,-0.1186,-0.1284,-0.131,-0.1352,-0.1415,-0.1458,-0.1564,-0.1602,-0.1733,-0.1743,-0.1822,-0.1868,-0.1811,-0.1862,-0.1848,-0.1828,-0.1807,-0.1766,-0.1733,-0.1718,-0.1718,-0.1718,-0.172,-0.1719,-0.1718,-0.1717,0,-0.1092,-0.1139,-0.1174,-0.1227,-0.1277,-0.1327,-0.1394,-0.1409,-0.153,-0.1637,-0.1663,-0.1684,-0.1718,-0.173,-0.1733,-0.1724,-0.1811,-0.1771,-0.1778,-0.174,-0.1711,-0.17,-0.1703,-0.1706,-0.1707,-0.1709,-0.1709,0,-0.1033,-0.1039,-0.1095,-0.1128,-0.1188,-0.1208,-0.1263,-0.131,-0.1362,-0.1508,-0.1515,-0.1608,-0.1699,-0.1667,-0.1673,-0.1649,-0.162,-0.156,-0.1577,-0.159,-0.1528,-0.1469,-0.1377,0,0,0,0,0,-0.0967,-0.0967,-0.0992,-0.1028,-0.1082,-0.1116,-0.1207,-0.127,-0.1391,-0.1368,-0.1435,-0.1463,-0.1477,-0.1528,-0.1471,-0.1601,-0.1622,-0.1528,-0.1561,-0.1642,-0.1655,-0.1595,0,0,0,0,0,0,-0.0926,-0.0946,-0.0954,-0.0932,-0.0939,-0.0989,-0.104,-0.1129,-0.1123,-0.1253,-0.1266,-0.1369,-0.1401,-0.1486,-0.144,-0.1453,-0.1442,-0.1591,-0.1587,-0.1634,-0.1646,-0.1657,-0.16,0,0,0,0,0]},{"header":{"parameterUnit":"m.s-1","parameterCategory":2,"la1":30.2991,"la2":30.254,"lo1":-89.0895,"lo2":-89.0444,"dy":0.0017,"dx":0.0017,"nx":28,"ny":28,"refTime":"2025-05-31T03:00:00:Z","depth":"4","parameterNumber":3,"parameterNumberName":"V-component_of_CURRENTS"},"data":[0,0,0,0,0,0,0,0,0,0,0,0,0,0,0,0,0,0,0,0,0,0,0,0,0,0,0,0,0,0,0,0,0,0,0,0,0,0,0,0,0,0,0,0,0,0,0,0,0,0,0,0,0,0,0,0,0,0,-0.0023,-0.0023,0,0.0045,0.0046,0.0046,0.0095,0.0095,0.0096,0.0096,0.0177,0.0179,0.0181,0,0,0,0,0,0,0,0,0,0,0,0,0,-0.0057,-0.0056,-0.0023,-0.0023,-0.0022,0.0044,0.0046,0.0047,0.0095,0.0095,0.0096,0.0096,0.0176,0.0179,0.0181,0,0,0,0,0,0,0,0,0,0,0,0,0,-0.002,-0.0056,-0.0023,0.0009,0.0013,0.0044,0.0046,0.0047,0.0095,0.0095,0.0096,0.0096,0.0176,0.0178,0.0181,0.0191,0,0,0.019,0.0191,0,0,0,0,0,0,0,0,-0.0022,-0.0018,0.0004,0.0007,0.0011,0.0061,0.0064,0.0095,0.0095,0.0065,0.0096,0.0096,0.0138,0.0144,0.0158,0.0195,0.0198,0.019,0.0192,0.0193,0.0194,0,0,0,0,0,0,0,-0.0025,-0.0021,0.0005,0.0004,0.0009,0.0039,0.0044,0.007,0.01,0.0068,0.0071,0.0076,0.014,0.0155,0.016,0.0199,0.019,0.0193,0.0195,0.0196,0.0234,0.0233,0,0,0,0,0,0,-0.0039,-0.0024,0.0003,0.0007,-0.0006,0.0039,0.0045,0.0045,0.0099,0.0108,0.0076,0.0078,0.015,0.0157,0.0163,0.0171,0.0193,0.0196,0.0198,0.0235,0.0234,0.0233,0,0,0,0,0,0,-0.004,-0.0038,0.0,-0.0007,-0.0001,0.0039,0.0039,0.0046,0.0061,0.0105,0.0114,0.0082,0.015,0.0159,0.0183,0.0174,0.0197,0.02,0.0235,0.0234,0.0233,0.019,0,0,0,0,0,0,-0.0042,-0.0039,-0.0042,-0.0009,-0.0001,0.0012,0.0039,0.0047,0.0063,0.0067,0.0114,0.0122,0.0151,0.0178,0.0185,0.0179,0.0202,0.0236,0.0235,0.0234,0.0193,0.0188,0.0184,0,0,0,0,0,-0.0043,-0.0054,-0.0043,-0.0039,-0.0007,0.0011,0.0018,0.0049,0.0063,0.0065,0.0097,0.012,0.0175,0.018,0.0189,0.0183,0.0237,0.0235,0.0234,0.0194,0.0189,0.0184,0,0,0,0,0,0,-0.0069,-0.0049,-0.0036,-0.0039,-0.0018,0.0019,0.0022,0.0044,0.0071,0.0073,0.0118,0.0128,0.0143,0.0166,0.0171,0.0188,0.0207,0.0207,0.0174,0.0169,0.0165,0.0158,0.0204,0,0,0,0,0,-0.0077,-0.008,-0.0053,-0.0055,-0.005,-0.0015,-0.0003,0.0016,0.0044,0.0057,0.0092,0.0121,0.0143,0.0158,0.0182,0.0195,0.0226,0.0194,0.0189,0.0186,0.0185,0.0225,0.0225,0.0228,0.0228,0.0228,0,0,-0.0087,-0.0077,-0.0077,-0.0061,-0.0044,-0.0041,-0.0006,0.0003,0.001,0.0061,0.0079,0.0108,0.0142,0.0157,0.0165,0.0176,0.0199,0.0184,0.018,0.0182,0.0224,0.0224,0.0224,0.0227,0.0227,0.0227,0,0,-0.0116,-0.0102,-0.0117,-0.0104,-0.0086,-0.0063,-0.0064,-0.0031,-0.0013,0.0006,0.0042,0.0068,0.0103,0.0131,0.0147,0.0132,0.0173,0.0133,0.0111,0.015,0.015,0.0151,0.0184,0.0188,0.0132,0.0132,0.0132,0,-0.0128,-0.0143,-0.0117,-0.0128,-0.0121,-0.0079,-0.009,-0.0066,-0.0026,-0.0013,0.0002,0.0061,0.0091,0.0117,0.011,0.0124,0.015,0.0129,0.0145,0.0147,0.0148,0.0182,0.0187,0.013,0.013,0.013,0.0131,0,-0.0166,-0.0176,-0.0185,-0.0183,-0.017,-0.0173,-0.014,-0.0125,-0.0098,-0.0068,-0.0037,0.0011,0.0048,0.0058,0.008,0.0102,0.0118,0.0135,0.0161,0.0146,0.0182,0.0188,0.0127,0.0127,0.0128,0.0129,0,0,-0.0196,-0.0211,-0.0213,-0.0223,-0.0201,-0.0196,-0.0188,-0.0164,-0.0156,-0.0111,-0.0092,-0.0047,-0.0011,0.001,0.0048,0.0082,0.0114,0.0108,0.0111,0.0144,0.0198,0.0188,0.0195,0.0136,0.0137,0.0138,0.0217,0,-0.0233,-0.0273,-0.0263,-0.0286,-0.03,-0.0263,-0.0256,-0.0226,-0.0191,-0.0161,-0.0101,-0.0071,-0.0032,-0.0014,0.0028,0.0094,0.0129,0.0091,0.0205,0.0208,0.0205,0.0201,0.014,0.0222,0.0224,0.0225,0.0226,0,-0.0269,-0.0291,-0.0332,-0.0342,-0.0344,-0.0348,-0.0327,-0.0314,-0.0259,-0.0232,-0.018,-0.0127,-0.0065,-0.0034,0.0082,0.0056,0.0119,0.0172,0.0177,0.0188,0.021,0.0242,0.0237,0.0236,0.0236,0.0235,0.0234,0,-0.03,-0.0334,-0.0371,-0.0374,-0.0377,-0.0387,-0.038,-0.0339,-0.033,-0.0273,-0.0256,-0.0166,-0.0124,-0.0028,0.0085,0.0085,0.021,0.0227,0.028,0.028,0.0286,0.0284,0.0303,0.0303,0.0303,0.0303,0.0302,0,-0.0335,-0.0363,-0.0395,-0.0412,-0.0447,-0.043,-0.0447,-0.0424,-0.0392,-0.0384,-0.0295,-0.0262,-0.0121,-0.0029,0.0074,0.0195,0.0207,0.0276,0.03,0.0264,0.0259,0.029,0.0288,0.0306,0.0305,0.0304,0.0304,0,-0.0356,-0.038,-0.0425,-0.0454,-0.0466,-0.0488,-0.0502,-0.0508,-0.0471,-0.0457,-0.0442,-0.0331,-0.0209,-0.0069,0.009,0.0172,0.0293,0.0331,0.0276,0.0296,0.0341,0.0335,0.0402,0.0402,0.0402,0.0402,0.0403,0,-0.0369,-0.0398,-0.0458,-0.0493,-0.0513,-0.0545,-0.0566,-0.0549,-0.0551,-0.0496,-0.0489,-0.0377,-0.029,-0.0068,0.008,0.0277,0.0302,0.0365,0.0358,0.0334,0.0352,0.0345,0.0339,0.0403,0.0403,0.0403,0.0403,0,-0.0388,-0.0415,-0.0452,-0.0529,-0.0574,-0.0615,-0.0643,-0.0652,-0.0626,-0.06,-0.0523,-0.0398,-0.0262,-0.0078,0.0071,0.0214,0.0327,0.0368,0.0369,0.0363,0.0337,0.0353,0.0346,0.0404,0.0404,0.0404,0.0404,0,-0.0396,-0.0431,-0.049,-0.0552,-0.0617,-0.0668,-0.068,-0.0676,-0.0669,-0.0608,-0.0583,-0.0424,-0.0327,-0.011,0.0031,0.0167,0.0204,0.0249,0.0257,0.0257,0.0192,0.0136,0.0162,0,0,0,0,0,-0.0398,-0.0443,-0.0509,-0.0582,-0.0648,-0.0686,-0.0721,-0.0721,-0.0703,-0.066,-0.0621,-0.0491,-0.0268,-0.0158,-0.0025,0.0034,0.0223,0.0195,0.0277,0.041,0.0408,0.0355,0,0,0,0,0,0,-0.0403,-0.0465,-0.0506,-0.0592,-0.0647,-0.0715,-0.0743,-0.0734,-0.0697,-0.0659,-0.0538,-0.0463,-0.0242,-0.035,-0.0025,0.0019,0.0089,0.0306,0.0309,0.041,0.0409,0.0408,0.0353,0,0,0,0,0]}]]